Total_Precipitation_Accumulation
0.01 0.01 0.01 0.02 0.02 0.04 0.07 0.12 0.20 0.22 0.21 0.30 0.48 0.73 0.86 0.83 0.89 1.04 1.15 1.35 1.39 1.43 1.70 2.17 2.81 3.48 4.26 5.38 6.06 6.20 5.92 5.20 4.68 4.27 4.01 3.72 3.45 3.17 2.69 2.27 2.01 1.88 1.79 1.73
0.01 0.02 0.02 0.02 0.02 0.04 0.06 0.12 0.20 0.20 0.17 0.20 0.44 0.80 0.92 0.94 1.00 1.00 1.07 1.16 1.09 1.24 1.58 2.17 2.94 3.74 4.40 4.96 5.33 5.41 5.03 4.26 3.77 3.50 3.43 3.15 2.94 2.59 2.39 2.16 2.10 1.82 1.74 1.73
0.03 0.04 0.02 0.02 0.03 0.05 0.09 0.11 0.17 0.21 0.18 0.22 0.44 0.96 1.16 1.08 1.05 1.03 0.93 0.92 1.03 1.25 1.78 2.53 3.33 4.07 4.42 4.45 4.22 3.94 3.75 3.35 3.22 3.16 2.98 2.76 2.70 2.40 2.24 2.05 1.95 1.67 1.50 1.47
0.02 0.04 0.03 0.03 0.05 0.06 0.10 0.08 0.07 0.09 0.16 0.39 0.54 1.07 1.24 1.23 1.15 1.01 0.98 0.98 1.10 1.38 1.92 2.62 3.15 3.38 3.54 3.47 3.18 2.99 2.90 2.82 2.76 2.67 2.54 2.25 2.12 2.07 1.93 1.84 1.85 1.73 1.53 1.45
0.03 0.03 0.04 0.04 0.05 0.05 0.06 0.05 0.05 0.10 0.22 0.42 0.58 0.93 1.29 1.26 1.33 0.91 0.76 0.84 0.95 1.18 1.49 1.69 1.89 2.05 2.18 2.22 2.37 2.45 2.57 2.68 2.59 2.51 2.48 2.37 2.11 2.06 2.03 2.02 2.10 1.97 1.77 1.55
0.03 0.03 0.04 0.04 0.04 0.05 0.05 0.07 0.14 0.24 0.42 0.79 0.80 0.96 1.30 1.30 1.18 0.78 0.55 0.57 0.76 0.86 0.94 1.03 1.13 1.25 1.48 1.53 1.73 1.94 2.07 2.23 2.39 2.41 2.24 2.15 2.09 2.12 2.16 2.10 1.93 1.74 1.61 1.51
0.09 0.08 0.06 0.07 0.06 0.07 0.06 0.11 0.35 0.70 1.06 1.12 0.69 0.79 1.22 1.16 0.84 0.54 0.44 0.42 0.44 0.59 0.76 0.90 1.02 1.12 1.32 1.27 1.34 1.57 1.65 1.67 1.82 1.86 1.82 1.88 2.00 2.05 1.93 1.82 1.74 1.58 1.34 1.32
0.15 0.15 0.10 0.07 0.09 0.08 0.07 0.08 0.22 0.42 0.54 0.72 0.76 1.25 1.47 0.87 0.59 0.44 0.39 0.36 0.36 0.49 0.67 0.77 0.77 0.86 0.98 0.95 1.07 1.23 1.32 1.38 1.44 1.56 1.66 1.62 1.76 1.78 1.70 1.75 1.63 1.49 1.28 1.18
0.06 0.09 0.08 0.07 0.09 0.09 0.08 0.06 0.09 0.14 0.23 0.55 0.95 1.31 1.29 0.78 0.60 0.42 0.37 0.40 0.43 0.41 0.54 0.61 0.55 0.56 0.68 0.79 0.92 1.04 1.11 1.23 1.26 1.41 1.48 1.44 1.54 1.61 1.66 1.66 1.55 1.38 1.38 1.24
0.04 0.04 0.06 0.06 0.08 0.09 0.08 0.09 0.10 0.14 0.24 0.48 0.85 1.35 1.61 1.18 0.67 0.49 0.46 0.47 0.51 0.43 0.47 0.50 0.50 0.46 0.52 0.68 0.93 1.01 1.03 1.15 1.19 1.28 1.29 1.17 1.33 1.45 1.57 1.52 1.44 1.41 1.43 1.37
0.04 0.04 0.06 0.07 0.08 0.10 0.11 0.10 0.12 0.15 0.17 0.28 0.66 1.00 0.90 0.89 0.65 0.63 0.62 0.56 0.54 0.49 0.51 0.49 0.49 0.48 0.45 0.56 0.77 0.84 0.97 1.09 1.15 1.21 1.31 1.36 1.36 1.30 1.41 1.42 1.40 1.43 1.47 1.41
0.04 0.05 0.06 0.09 0.11 0.12 0.13 0.13 0.14 0.16 0.15 0.16 0.32 0.56 0.56 0.72 0.68 0.67 0.73 0.67 0.62 0.46 0.42 0.44 0.49 0.53 0.48 0.49 0.60 0.74 0.91 1.06 1.11 1.18 1.30 1.38 1.51 1.47 1.42 1.40 1.44 1.47 1.56 1.61
0.04 0.05 0.09 0.17 0.23 0.19 0.13 0.12 0.13 0.14 0.11 0.13 0.32 0.53 0.51 0.57 0.61 0.59 0.72 0.72 0.62 0.57 0.53 0.52 0.57 0.61 0.63 0.60 0.63 0.74 0.89 1.05 1.17 1.25 1.33 1.47 1.54 1.44 1.38 1.49 1.58 1.61 1.75 1.89
0.04 0.04 0.07 0.18 0.26 0.29 0.22 0.15 0.14 0.12 0.11 0.12 0.21 0.45 0.51 0.58 0.58 0.65 0.73 0.74 0.73 0.70 0.62 0.56 0.54 0.59 0.69 0.83 0.84 0.89 1.13 1.15 1.15 1.34 1.48 1.55 1.58 1.53 1.51 1.59 1.70 1.73 1.80 1.96
0.04 0.04 0.05 0.06 0.10 0.16 0.20 0.18 0.14 0.10 0.08 0.11 0.20 0.37 0.48 0.60 0.69 0.72 0.72 0.67 0.63 0.63 0.60 0.52 0.51 0.56 0.67 0.80 0.86 0.98 1.06 1.24 1.29 1.48 1.63 1.67 1.77 1.79 1.83 1.94 1.95 1.88 1.88 1.91
0.07 0.06 0.05 0.04 0.08 0.12 0.15 0.18 0.13 0.10 0.08 0.09 0.18 0.40 0.51 0.56 0.62 0.72 0.69 0.69 0.67 0.60 0.58 0.60 0.64 0.67 0.70 0.75 0.82 0.89 0.97 1.18 1.39 1.67 1.99 2.01 2.04 2.04 2.12 2.29 2.36 2.26 2.22 2.30
0.13 0.11 0.09 0.08 0.11 0.12 0.17 0.17 0.15 0.16 0.15 0.17 0.25 0.38 0.46 0.54 0.64 0.85 0.83 0.77 0.78 0.75 0.74 0.79 0.89 0.88 0.85 0.86 0.89 0.97 1.07 1.25 1.54 1.83 2.08 2.22 2.27 2.29 2.36 2.45 2.47 2.41 2.50 2.66
0.20 0.20 0.16 0.13 0.17 0.23 0.21 0.22 0.21 0.24 0.26 0.30 0.38 0.41 0.55 0.76 0.87 1.03 1.07 0.93 0.90 0.83 0.79 0.85 1.00 1.05 1.01 1.00 1.07 1.20 1.36 1.59 1.87 2.08 2.21 2.32 2.33 2.34 2.37 2.41 2.33 2.36 2.49 2.57
0.21 0.25 0.26 0.23 0.26 0.27 0.30 0.34 0.36 0.40 0.53 0.52 0.60 0.67 0.78 0.90 0.88 0.97 0.91 0.82 0.80 0.77 0.84 0.92 1.03 1.15 1.21 1.23 1.33 1.40 1.53 1.73 1.97 2.12 2.15 2.13 2.21 2.29 2.32 2.33 2.37 2.41 2.41 2.30
0.32 0.32 0.41 0.36 0.39 0.42 0.46 0.48 0.44 0.52 0.97 0.98 0.95 0.90 0.86 0.93 1.15 1.13 0.92 0.83 0.84 0.83 0.85 0.97 0.99 1.07 1.19 1.29 1.33 1.42 1.59 1.79 1.98 2.12 2.13 2.09 2.19 2.29 2.32 2.36 2.41 2.35 2.27 2.20
0.53 0.55 0.52 0.52 0.56 0.53 0.51 0.46 0.46 0.81 1.15 1.10 1.09 1.13 1.04 1.12 1.20 1.18 1.06 1.04 0.99 0.96 0.96 0.96 1.03 1.09 1.13 1.24 1.33 1.44 1.57 1.69 1.81 1.93 2.04 2.16 2.33 2.40 2.41 2.44 2.40 2.32 2.22 2.22
0.65 0.69 0.69 0.69 0.86 0.91 0.66 0.55 0.78 1.06 0.95 1.11 1.24 1.22 1.21 1.16 1.08 1.10 1.12 1.10 1.07 1.02 1.02 1.04 1.11 1.24 1.31 1.36 1.39 1.48 1.49 1.57 1.74 1.79 1.91 1.97 2.10 2.22 2.23 2.30 2.25 2.25 2.20 2.13
0.83 0.83 0.87 0.96 1.09 0.91 0.76 0.78 0.87 0.93 1.01 1.10 1.22 1.28 1.23 1.27 1.21 1.08 1.07 1.04 1.20 1.26 1.20 1.15 1.14 1.22 1.29 1.40 1.50 1.58 1.56 1.53 1.57 1.66 1.79 1.89 1.96 2.12 2.16 2.18 2.12 2.05 2.01 1.92
1.02 0.83 0.93 1.19 1.26 1.10 1.00 0.97 0.91 0.91 0.97 1.02 1.15 1.25 1.33 1.31 1.17 1.08 1.02 0.99 0.99 1.03 1.03 1.08 1.10 1.16 1.33 1.34 1.41 1.52 1.59 1.56 1.60 1.67 1.69 1.78 1.85 1.94 2.11 2.13 1.99 1.86 1.75 1.67
1.15 1.16 1.18 1.38 1.42 1.22 1.11 1.06 1.11 1.06 1.01 1.00 1.08 1.15 1.17 1.12 1.10 1.09 1.05 0.99 0.97 0.93 0.90 0.91 0.95 0.99 1.08 1.11 1.16 1.27 1.38 1.43 1.42 1.39 1.36 1.36 1.48 1.64 1.82 1.87 1.81 1.65 1.54 1.61
1.08 1.32 1.47 1.55 1.37 1.37 1.38 1.29 1.25 1.30 1.29 1.23 1.19 1.19 1.11 1.04 1.01 0.98 0.93 0.87 0.85 0.79 0.75 0.79 0.82 0.84 0.88 0.94 1.04 1.15 1.34 1.46 1.46 1.36 1.26 1.23 1.24 1.33 1.53 1.74 1.81 1.67 1.45 1.49